Regional Weather Roundup
Issued by NWS

Home | Current Version | Previous Version | Graphics & Text | Print | Product List | Glossary On
Versions: 1 2 3 4 5 6 7 8 9 10 11 12 13 14 15 16 17 18 19 20 21 22 23 24 25 26 27 28 29 30 31 32 33 34 35 36 37 38 39 40 41 42 43 44 45 46 47 48 49 50
007
ASUS43 KFSD 170410
RWRSD

WEATHER ROUNDUP FOR SOUTH DAKOTA
NATIONAL WEATHER SERVICE SIOUX FALLS SD
1100 PM CDT MON OCT 16 2017

NOTE: "FAIR" INDICATES FEW OR NO CLOUDS BELOW 12,000 FEET WITH NO
SIGNIFICANT WEATHER AND/OR OBSTRUCTIONS TO VISIBILITY.


SDZ001>005-009-010-012>017-170500-
NORTHWEST AND NORTH CENTRAL SOUTH DAKOTA

CITY           SKY/WX    TMP DP  RH WIND       PRES   REMARKS
BUFFALO          N/A     50  27  40 W6        29.99S
FAITH            N/A     54  29  38 W6        30.05S
MOBRIDGE       CLEAR     46  35  65 CALM      29.98R
$$

SDZ012>016-024>037-041>051-057-063-072>074-170500-
SOUTHWEST AND SOUTH CENTRAL SOUTH DAKOTA

CITY           SKY/WX    TMP DP  RH WIND       PRES   REMARKS
RAPID CTY ARPT CLEAR     48  29  47 N5        30.11R
PIERRE         CLEAR     47  38  71 W3        30.02R
CUSTER         CLEAR     45  22  40 N3        30.20S
ELLSWORTH AFB  CLEAR     50  28  42 W5        30.10S
PHILIP         CLEAR     45  36  70 W8        30.07R
PINE RIDGE     CLEAR     37  31  78 CALM      30.13R
SPEARFISH      FAIR      52  27  37 CALM      30.13S
WINNER         FAIR      46  39  76 SW7       30.06R
$$

SDZ004>011-016>023-039-040-170500-
NORTHEAST SOUTH DAKOTA

CITY           SKY/WX    TMP DP  RH WIND       PRES   REMARKS
ABERDEEN       CLEAR     42  38  85 W5        29.98R
WATERTOWN      CLEAR     47  41  80 SW8       29.98S
BROOKINGS      CLEAR     51  40  65 SW3       30.00S
SISSETON         N/A     57  42  57 W14       29.94R
$$

SDZ017-020-022-023-036>040-048>070-170500-
SOUTHEAST SOUTH DAKOTA

CITY           SKY/WX    TMP DP  RH WIND       PRES   REMARKS
SIOUX FALLS    CLEAR     51  41  68 CALM      30.02R
HURON          CLEAR     51  41  68 SW5       30.00R
CHAMBERLAIN    CLEAR     53  41  65 CALM      30.04R
MITCHELL       CLEAR     51  42  71 SW3       30.01S
YANKTON        PTCLDY    56  41  57 SW5       30.02F
$$

ABBREVIATIONS USED IN REMARKS
   TC - TEMPERATURE IN CELSIUS
  WCI - WIND CHILL INDEX
   HX - HEAT INDEX
  VSB - VISIBILITY





USA.gov is the U.S. government's official web portal to all federal, state and local government web resources and services.